Myojin Maru No.25 — JL6201 — position and weather

sailwx.info

Track history (hours):
 
Tides and Currents Weather Stations Pressure Air Temp Water Temp Dewpoint Dewpoint Depression Visibility Wind Speed Wind Dir Waves Ship Positions

Myojin Maru No.25

Last reported at 2016-Apr-30 15:17 UTC. Time now 2016-May-02 05:59 UTC.
Position N 34°08' E 134°59'.

Length 88 m; draft 5.6 m.

Type: Tanker. MMSI: 431500272.

Date/timePositionNaut miles runAvg speedWind from/ knotsBaromVisibWave heightAir tempDewpointWater temp
2016-Apr-30 15:17N 34°08' E 134°59'1012.3
2016-Apr-30 14:28N 34°18' E 134°59'1112.3
2016-Apr-30 13:33N 34°29' E 135°03'240 8.0
2016-Apr-29 07:30N 33°52' E 130°16'1212.5
2016-Apr-29 06:32N 33°45' E 130°04'  
2016-Apr-24 22:07N 34°42' E 134°45'812.2
2016-Apr-24 21:30N 34°37' E 134°53'1010.8
2016-Apr-24 20:33N 34°35' E 135°05'1211.9
2016-Apr-24 19:33N 34°24' E 135°02'1111.5
2016-Apr-24 18:33N 34°12' E 134°59'1312.5
2016-Apr-24 17:32N 33°60' E 135°00'  
2016-Apr-22 04:33N 35°01' E 139°32'1212.2
2016-Apr-22 03:32N 35°09' E 139°44'1111.0
2016-Apr-22 02:33N 35°20' E 139°43'1111.0
2016-Apr-22 01:33N 35°29' E 139°50'4 3.5
2016-Apr-22 00:33N 35°29' E 139°55'0 0.0
2016-Apr-21 23:29N 35°29' E 139°55'0 0.0
2016-Apr-21 22:26N 35°29' E 139°55'0 0.0
2016-Apr-21 21:29N 35°29' E 139°55'0 0.0
2016-Apr-21 20:30N 35°29' E 139°55'0 0.0
2016-Apr-21 19:33N 35°29' E 139°55'0 0.0
2016-Apr-21 18:33N 35°29' E 139°55'0 0.0
2016-Apr-21 17:33N 35°29' E 139°55'0 0.0
2016-Apr-21 16:33N 35°29' E 139°55'0 0.0
2016-Apr-21 15:33N 35°29' E 139°55'0 0.0
2016-Apr-21 14:33N 35°29' E 139°55'0 0.0
2016-Apr-21 13:33N 35°29' E 139°55'0 0.0
2016-Apr-21 12:33N 35°29' E 139°55'0 0.1
2016-Apr-21 11:33N 35°29' E 139°55'0 0.0
2016-Apr-21 10:33N 35°29' E 139°55'0 0.0
2016-Apr-21 09:33N 35°29' E 139°55'0 0.0
2016-Apr-21 08:33N 35°29' E 139°55'0 0.0
2016-Apr-21 07:33N 35°29' E 139°55'0 0.1
2016-Apr-21 06:33N 35°29' E 139°55'0 0.0
2016-Apr-21 05:33N 35°29' E 139°55'0 0.0
2016-Apr-21 04:33N 35°29' E 139°55'0 0.0
2016-Apr-21 03:33N 35°29' E 139°55'6 5.6
2016-Apr-21 02:33N 35°30' E 140°01'0 0.5
2016-Apr-21 01:33N 35°30' E 140°02'0 0.0
2016-Apr-21 00:32N 35°30' E 140°02'0 0.1
2016-Apr-20 23:33N 35°30' E 140°02'2 2.4
2016-Apr-20 22:33N 35°31' E 139°59'5 5.2
2016-Apr-20 21:33N 35°35' E 140°04'2 2.5
2016-Apr-20 20:33N 35°36' E 140°07'0 0.0
2016-Apr-20 19:33N 35°36' E 140°07'0 0.0
2016-Apr-20 18:33N 35°36' E 140°07'0 0.0
2016-Apr-20 17:33N 35°36' E 140°07'0 0.0
2016-Apr-20 16:33N 35°36' E 140°07'0 0.0
2016-Apr-20 15:33N 35°36' E 140°07'  
Track history (hours):
 
Tides and Currents Weather Stations Pressure Air Temp Water Temp Dewpoint Dewpoint Depression Visibility Wind Speed Wind Dir Waves Ship Positions

Myojin Maru No.25

Last reported at 2016-Apr-30 15:17 UTC. Time now 2016-May-02 05:59 UTC.
Position N 34°08' E 134°59'.

Length 88 m; draft 5.6 m.

Type: Tanker. MMSI: 431500272.

Date/timePositionNaut miles runAvg speedWind from/ knotsBaromVisibWave heightAir tempDewpointWater temp
2016-Apr-30 15:17N 34°08' E 134°59'1012.3
2016-Apr-30 14:28N 34°18' E 134°59'1112.3
2016-Apr-30 13:33N 34°29' E 135°03'240 8.0
2016-Apr-29 07:30N 33°52' E 130°16'1212.5
2016-Apr-29 06:32N 33°45' E 130°04'  
2016-Apr-24 22:07N 34°42' E 134°45'812.2
2016-Apr-24 21:30N 34°37' E 134°53'1010.8
2016-Apr-24 20:33N 34°35' E 135°05'1211.9
2016-Apr-24 19:33N 34°24' E 135°02'1111.5
2016-Apr-24 18:33N 34°12' E 134°59'1312.5
2016-Apr-24 17:32N 33°60' E 135°00'  
2016-Apr-22 04:33N 35°01' E 139°32'1212.2
2016-Apr-22 03:32N 35°09' E 139°44'1111.0
2016-Apr-22 02:33N 35°20' E 139°43'1111.0
2016-Apr-22 01:33N 35°29' E 139°50'4 3.5
2016-Apr-22 00:33N 35°29' E 139°55'0 0.0
2016-Apr-21 23:29N 35°29' E 139°55'0 0.0
2016-Apr-21 22:26N 35°29' E 139°55'0 0.0
2016-Apr-21 21:29N 35°29' E 139°55'0 0.0
2016-Apr-21 20:30N 35°29' E 139°55'0 0.0
2016-Apr-21 19:33N 35°29' E 139°55'0 0.0
2016-Apr-21 18:33N 35°29' E 139°55'0 0.0
2016-Apr-21 17:33N 35°29' E 139°55'0 0.0
2016-Apr-21 16:33N 35°29' E 139°55'0 0.0
2016-Apr-21 15:33N 35°29' E 139°55'0 0.0
2016-Apr-21 14:33N 35°29' E 139°55'0 0.0
2016-Apr-21 13:33N 35°29' E 139°55'0 0.0
2016-Apr-21 12:33N 35°29' E 139°55'0 0.1
2016-Apr-21 11:33N 35°29' E 139°55'0 0.0
2016-Apr-21 10:33N 35°29' E 139°55'0 0.0
2016-Apr-21 09:33N 35°29' E 139°55'0 0.0
2016-Apr-21 08:33N 35°29' E 139°55'0 0.0
2016-Apr-21 07:33N 35°29' E 139°55'0 0.1
2016-Apr-21 06:33N 35°29' E 139°55'0 0.0
2016-Apr-21 05:33N 35°29' E 139°55'0 0.0
2016-Apr-21 04:33N 35°29' E 139°55'0 0.0
2016-Apr-21 03:33N 35°29' E 139°55'6 5.6
2016-Apr-21 02:33N 35°30' E 140°01'0 0.5
2016-Apr-21 01:33N 35°30' E 140°02'0 0.0
2016-Apr-21 00:32N 35°30' E 140°02'0 0.1
2016-Apr-20 23:33N 35°30' E 140°02'2 2.4
2016-Apr-20 22:33N 35°31' E 139°59'5 5.2
2016-Apr-20 21:33N 35°35' E 140°04'2 2.5
2016-Apr-20 20:33N 35°36' E 140°07'0 0.0
2016-Apr-20 19:33N 35°36' E 140°07'0 0.0
2016-Apr-20 18:33N 35°36' E 140°07'0 0.0
2016-Apr-20 17:33N 35°36' E 140°07'0 0.0
2016-Apr-20 16:33N 35°36' E 140°07'0 0.0
2016-Apr-20 15:33N 35°36' E 140°07'  

Dump ship's entire track history